Wetbulb
74.51 73.40 71.93 70.09 70.32 70.41 70.41 70.51 71.07 71.39 71.54 71.00 70.79 70.83 70.08 70.72 70.77 70.00 70.40 70.64 70.38 70.41 69.55 68.24 68.26 68.26 66.50 65.98 65.77 66.15 68.28 68.11
73.79 73.85 73.29 72.86 72.42 69.26 69.39 69.28 69.89 70.26 70.62 70.15 69.32 68.80 69.63 69.39 69.10 69.53 69.88 69.36 69.88 69.72 68.11 67.77 67.70 66.94 65.73 64.58 64.98 64.90 68.06 67.12
72.87 73.03 73.32 73.53 73.15 71.46 69.22 69.28 69.03 69.19 70.15 69.70 68.89 72.11 71.51 71.02 69.40 68.30 68.14 68.15 68.92 68.78 67.84 66.99 66.16 65.16 64.83 64.08 64.45 68.19 66.14 66.30
71.37 72.30 72.31 72.75 71.83 72.83 72.00 72.17 72.10 71.58 71.91 72.49 72.72 71.81 71.70 70.56 69.19 67.71 67.96 67.77 67.20 67.15 66.52 65.44 65.61 67.29 65.83 64.79 66.05 66.98 66.69 65.98
69.93 71.87 72.71 72.31 71.51 71.96 72.03 71.47 71.81 71.73 72.09 71.97 72.28 71.73 72.30 71.38 71.30 70.79 70.21 67.27 68.16 67.45 66.72 67.50 67.31 66.55 66.22 65.40 65.63 66.05 65.76 65.24
69.89 71.05 72.00 72.61 71.42 70.96 71.51 71.70 71.89 71.31 71.89 73.43 72.13 71.76 71.21 70.62 69.42 69.92 69.66 68.61 67.99 68.28 68.16 67.76 66.82 66.30 66.30 65.14 64.91 64.55 65.19 65.79
70.02 71.18 71.86 72.24 72.11 71.26 71.46 72.22 70.74 72.10 71.32 72.09 72.06 70.72 70.30 69.89 69.94 69.44 68.66 67.58 68.02 67.89 67.53 66.99 66.02 65.25 65.48 64.63 63.79 63.90 64.27 64.61
70.34 71.03 71.86 72.09 71.62 71.90 71.87 72.24 71.80 70.80 70.23 71.05 72.06 71.51 70.56 70.63 69.96 69.17 69.32 69.22 68.81 68.49 67.53 66.42 65.03 64.85 64.19 63.17 63.29 63.70 64.40 63.72
69.67 71.03 72.33 71.42 71.37 71.26 71.06 71.02 70.82 71.06 70.01 70.72 71.03 70.87 70.41 69.70 69.11 68.64 69.10 68.74 68.44 67.88 67.07 66.91 65.60 63.99 62.78 62.77 63.00 64.70 63.78 62.95
66.65 69.40 71.20 70.97 71.95 71.44 70.51 70.04 70.16 70.04 70.10 69.91 69.84 70.14 70.11 69.09 68.32 68.08 68.90 68.78 67.88 66.74 65.47 64.03 62.94 61.96 61.83 61.91 61.91 63.24 63.89 62.07
65.05 68.89 69.65 70.92 71.79 71.41 71.35 70.56 69.50 69.31 69.30 67.81 69.08 67.80 68.16 67.89 68.15 68.30 68.57 66.97 66.08 65.24 62.51 62.38 60.81 60.57 60.68 60.92 61.32 62.44 62.32 62.04
63.75 65.62 68.68 69.77 70.59 71.32 70.29 68.86 68.56 68.73 68.25 68.07 68.48 68.25 67.65 67.60 67.38 67.77 67.24 64.67 62.90 62.11 60.37 59.81 59.73 59.78 60.12 59.88 60.22 61.99 62.38 61.84
61.87 62.45 65.90 68.52 67.62 67.98 68.73 65.21 65.35 66.01 68.44 68.56 68.07 67.36 66.68 65.84 65.65 65.69 64.92 62.73 61.13 60.71 59.33 58.99 58.35 59.50 58.49 58.62 58.92 61.08 61.98 61.30
63.27 63.44 63.75 65.35 67.05 67.68 67.88 64.51 64.68 65.44 66.84 68.23 67.91 67.04 66.13 65.69 65.85 63.72 61.42 60.68 59.90 59.18 57.96 56.97 57.41 58.79 56.95 55.95 53.56 56.60 59.63 59.77
62.93 63.63 64.19 65.43 66.82 67.61 65.52 65.11 64.21 63.72 64.16 65.87 66.68 66.70 66.00 66.12 65.78 63.81 60.96 60.04 58.45 58.28 57.80 57.11 55.53 57.63 58.30 55.81 52.36 51.89 55.16 58.62
64.05 64.08 64.25 65.12 66.96 66.40 63.81 62.50 61.40 62.81 64.00 65.04 65.51 66.48 65.67 64.96 64.59 62.98 60.96 59.59 58.50 58.51 59.49 57.64 56.70 55.27 57.25 58.49 57.49 56.59 53.24 52.62
63.65 64.44 64.42 65.08 65.77 66.43 64.36 62.37 64.33 65.43 65.19 64.83 63.88 65.28 64.29 65.05 64.15 62.04 61.10 59.62 58.97 58.03 57.69 56.96 56.41 55.33 55.51 56.03 56.19 56.19 58.09 54.83
62.67 63.41 64.00 64.65 65.46 65.49 64.36 62.88 65.06 64.82 65.11 64.35 62.64 63.83 64.46 63.77 63.27 62.37 62.16 60.79 58.90 57.87 58.03 57.20 56.65 56.10 56.69 56.65 55.94 54.93 55.43 55.45
60.97 61.50 62.87 64.16 64.27 63.89 63.63 63.32 64.91 65.64 65.38 64.29 62.86 62.27 62.65 62.58 61.28 61.50 60.79 60.49 59.67 58.31 57.52 57.06 56.72 56.43 56.91 56.52 57.52 56.83 57.47 56.70
59.81 60.37 61.30 63.26 63.23 61.20 63.04 63.15 63.56 64.65 64.68 63.84 62.75 62.17 62.57 61.45 60.67 60.14 59.50 59.44 59.64 58.32 57.46 57.18 56.92 56.55 56.57 56.54 56.66 57.17 57.79 58.71
MSLP
1007.55 1008.54 1009.14 1009.78 1010.07 1010.51 1010.86 1011.19 1011.47 1011.86 1012.14 1012.40 1012.57 1012.71 1013.05 1013.35 1013.57 1013.75 1014.19 1014.63 1014.84 1015.22 1015.41 1015.99 1016.49 1016.91 1017.10 1017.16 1017.25 1017.09 1016.51 1017.00
1007.37 1008.05 1008.68 1009.19 1009.67 1010.43 1010.96 1011.21 1011.57 1011.79 1012.21 1012.47 1012.65 1012.79 1013.05 1013.29 1013.69 1013.92 1014.24 1014.66 1015.06 1015.39 1015.57 1015.98 1016.52 1016.80 1017.27 1017.39 1017.54 1017.66 1017.06 1017.41
1007.01 1007.46 1008.07 1008.56 1009.02 1009.78 1010.84 1011.31 1011.53 1011.83 1012.08 1012.36 1012.68 1012.70 1012.77 1013.18 1013.60 1013.92 1014.45 1014.87 1015.07 1015.36 1015.78 1016.28 1016.70 1017.27 1017.49 1017.75 1017.97 1016.90 1017.27 1017.66
1006.49 1007.08 1007.62 1008.14 1008.53 1009.24 1009.95 1010.49 1010.90 1011.27 1011.45 1011.60 1012.23 1012.19 1012.33 1012.60 1012.96 1013.85 1014.22 1014.70 1015.03 1015.48 1016.11 1016.39 1016.70 1017.24 1017.75 1018.15 1018.06 1017.66 1017.30 1018.10
1005.89 1006.78 1007.30 1007.79 1007.93 1008.24 1008.76 1009.88 1010.34 1010.63 1010.93 1011.28 1011.38 1011.71 1012.03 1012.44 1012.93 1013.41 1014.04 1014.60 1014.78 1015.43 1016.19 1016.20 1016.53 1017.26 1017.70 1018.02 1018.20 1018.13 1018.00 1018.03
1005.30 1006.07 1006.86 1007.31 1007.47 1007.78 1007.80 1009.07 1009.48 1009.98 1010.13 1010.80 1011.20 1011.76 1012.00 1012.34 1012.57 1013.12 1013.56 1013.68 1013.87 1014.57 1015.56 1015.91 1016.48 1017.03 1017.40 1017.85 1018.19 1018.54 1018.70 1017.66
1004.26 1005.50 1006.23 1006.90 1007.35 1007.27 1007.72 1008.36 1009.55 1009.31 1009.96 1010.20 1010.61 1011.06 1011.64 1012.08 1012.27 1012.58 1012.77 1012.97 1013.38 1014.36 1015.08 1015.66 1016.20 1016.81 1017.33 1017.52 1018.19 1018.46 1018.53 1017.80
1003.45 1004.53 1005.82 1006.43 1006.88 1007.15 1007.31 1007.72 1008.31 1009.57 1010.01 1009.96 1010.47 1010.68 1011.17 1011.75 1012.06 1012.45 1012.50 1012.73 1013.36 1014.24 1014.81 1015.31 1015.94 1016.50 1017.13 1017.48 1018.03 1017.73 1017.66 1017.70
1002.74 1004.02 1005.28 1006.14 1006.41 1006.92 1007.25 1007.35 1007.71 1008.34 1009.35 1009.76 1010.15 1010.48 1010.87 1011.29 1011.84 1012.27 1012.27 1012.59 1013.13 1013.93 1014.56 1015.04 1015.79 1016.40 1017.08 1017.34 1017.81 1016.86 1016.62 1017.58
1002.03 1003.13 1004.40 1005.64 1005.72 1006.15 1007.09 1007.16 1007.52 1007.69 1008.52 1009.03 1009.80 1010.28 1010.53 1010.87 1011.20 1011.83 1012.18 1012.61 1013.09 1013.75 1014.45 1015.15 1015.70 1016.25 1016.69 1017.12 1016.95 1016.56 1016.77 1017.58
1001.64 1002.54 1003.59 1004.57 1005.36 1005.59 1006.18 1006.84 1007.19 1007.42 1007.88 1008.89 1009.37 1010.09 1010.42 1010.75 1010.68 1011.09 1011.66 1012.54 1013.14 1013.80 1014.56 1015.01 1015.57 1016.05 1016.35 1016.77 1016.56 1016.23 1016.81 1016.81
1001.52 1002.08 1002.96 1003.98 1004.70 1005.33 1005.64 1006.47 1006.94 1007.18 1007.54 1008.31 1008.79 1009.47 1009.95 1010.41 1010.68 1010.99 1011.50 1012.48 1013.29 1013.89 1014.47 1015.12 1014.94 1015.68 1016.00 1016.52 1016.77 1016.50 1016.39 1016.70
1001.61 1001.93 1002.38 1003.20 1004.00 1004.29 1004.90 1006.05 1006.93 1007.10 1006.69 1007.16 1007.68 1008.55 1009.42 1010.20 1010.54 1010.81 1011.58 1012.39 1013.13 1013.76 1014.52 1014.62 1015.33 1015.55 1015.90 1016.58 1016.76 1016.77 1016.62 1016.57
1001.35 1001.56 1002.05 1002.43 1003.05 1003.48 1004.68 1006.07 1006.75 1007.13 1006.89 1006.72 1007.15 1008.01 1008.70 1009.68 1010.21 1010.87 1011.46 1012.24 1012.94 1013.57 1014.14 1014.36 1015.18 1014.96 1015.30 1015.79 1016.88 1017.41 1017.10 1016.91
1001.19 1001.20 1001.36 1001.76 1002.61 1003.42 1005.06 1005.76 1006.41 1006.77 1006.77 1006.62 1007.05 1007.64 1008.16 1008.89 1009.65 1010.55 1011.22 1011.84 1012.46 1013.12 1013.53 1013.87 1014.74 1015.11 1015.16 1014.99 1015.67 1016.38 1017.16 1017.56
1001.28 1001.12 1001.00 1001.24 1002.08 1002.90 1004.35 1004.63 1005.15 1005.53 1006.00 1006.17 1006.53 1007.14 1007.65 1008.38 1009.36 1010.14 1010.84 1011.38 1012.05 1012.62 1013.12 1013.42 1013.96 1014.54 1015.25 1015.24 1014.93 1015.38 1016.04 1017.24
1001.38 1001.39 1001.08 1000.98 1001.39 1002.36 1003.68 1004.37 1004.55 1004.59 1005.16 1005.52 1006.25 1006.81 1007.39 1008.01 1008.97 1009.63 1010.32 1010.91 1011.53 1012.12 1012.75 1013.31 1014.01 1014.06 1013.93 1014.77 1015.33 1015.59 1015.57 1015.91
1001.24 1001.22 1001.09 1001.03 1001.17 1002.03 1002.90 1003.84 1003.66 1003.39 1003.89 1004.54 1005.54 1006.34 1006.94 1007.78 1008.52 1009.09 1009.77 1010.40 1011.02 1011.59 1012.19 1012.69 1013.36 1013.92 1014.03 1014.38 1014.81 1015.20 1014.94 1015.16
1001.07 1000.81 1000.76 1000.96 1001.36 1001.86 1002.55 1003.09 1003.16 1002.68 1003.08 1003.91 1004.91 1005.55 1006.35 1007.21 1008.06 1008.60 1009.39 1010.02 1010.53 1011.12 1011.67 1012.32 1012.84 1013.39 1013.56 1013.98 1014.53 1015.11 1014.79 1015.53
1001.20 1001.11 1000.51 1000.57 1001.07 1001.95 1002.36 1002.72 1002.64 1002.34 1002.75 1003.58 1004.36 1004.83 1005.59 1006.77 1007.53 1008.29 1009.00 1009.58 1010.10 1010.67 1011.22 1011.75 1012.46 1012.92 1013.25 1013.88 1014.37 1015.08 1014.85 1015.27
Wind_Speed
11 12 12 9 9 7 7 8 9 9 9 10 13 13 11 13 15 15 13 11 11 12 13 14 12 11 10 9 10 11 7 9
12 12 13 12 11 8 7 8 8 9 9 9 7 8 11 13 13 11 12 9 8 11 11 12 14 12 10 9 10 5 5 8
12 14 13 13 11 11 9 7 8 8 9 7 7 10 13 14 13 11 10 9 9 12 8 10 13 9 8 6 6 9 7 6
14 13 13 12 10 11 12 11 11 11 11 13 11 12 9 9 12 11 13 9 8 9 13 13 12 7 5 7 2 9 3 7
15 13 13 13 11 10 8 6 8 8 12 12 11 9 8 7 6 7 8 9 9 10 9 8 9 7 8 6 7 6 6 7
16 15 13 13 9 9 9 8 9 8 10 13 8 6 7 7 7 9 9 8 11 10 7 9 11 11 13 10 7 4 6 7
17 15 15 13 13 10 9 10 10 7 9 11 10 9 9 8 8 8 9 9 10 8 10 9 10 11 11 10 8 10 11 7
16 17 15 15 14 13 9 8 11 10 5 10 13 10 8 7 8 8 8 7 7 8 8 11 8 9 10 10 9 12 13 10
15 16 17 17 16 14 10 9 9 11 10 12 14 13 10 11 9 9 9 9 11 8 9 10 8 9 11 10 11 14 7 10
14 14 17 17 16 14 12 11 10 9 10 8 13 13 11 11 9 9 8 7 7 8 7 8 7 8 9 8 8 8 9 9
13 14 16 16 16 14 13 12 11 10 10 8 13 10 9 11 11 7 9 7 6 7 6 8 7 9 10 9 9 9 8 10
10 10 14 15 12 12 11 11 12 11 11 12 15 12 13 9 9 7 8 6 5 6 8 6 8 8 9 8 6 7 9 8
11 11 12 11 12 12 11 10 8 10 12 14 14 11 12 9 8 7 8 9 9 9 6 10 7 10 9 7 7 8 8 7
12 12 13 13 12 12 8 8 8 8 10 11 12 12 10 11 11 7 9 7 9 10 9 5 3 7 8 6 5 5 6 7
9 13 13 13 15 8 7 8 7 8 10 11 13 11 13 10 12 9 9 9 9 11 12 13 8 7 5 3 6 4 7 5
9 11 12 13 15 13 16 10 11 11 10 11 11 14 13 12 11 11 10 8 11 10 11 11 10 14 6 2 3 8 8 6
6 10 11 13 14 16 14 13 13 11 12 15 13 12 11 12 13 11 10 8 11 13 11 11 9 11 11 8 2 4 10 8
9 9 12 12 13 16 15 15 17 13 13 11 10 7 10 11 12 10 11 11 12 11 13 12 12 10 9 9 7 9 10 7
9 12 12 13 14 16 13 16 18 16 13 10 12 10 9 11 11 11 9 11 11 11 12 14 13 11 9 9 4 5 7 6
14 16 16 13 13 12 15 15 11 10 12 11 10 9 10 10 11 10 11 11 11 11 10 10 13 11 11 9 7 5 6 8
Wind_Direction
154 171 170 166 163 167 166 162 161 168 179 183 179 179 174 174 184 186 180 177 170 156 155 161 149 144 171 174 200 227 269 131
168 174 176 179 177 166 172 165 174 177 192 193 199 193 183 187 190 178 169 184 181 157 172 155 156 167 181 180 212 256 178 133
182 177 181 182 184 169 174 177 177 184 196 181 202 214 198 195 204 168 175 190 186 168 161 153 143 159 168 185 208 215 152 128
188 188 183 185 187 176 195 196 200 204 205 199 216 217 217 214 196 173 187 196 185 154 134 131 159 164 157 163 283 321 125 131
200 190 188 196 198 186 183 184 201 211 206 218 210 213 216 212 206 202 195 192 188 165 151 178 178 168 165 170 197 229 258 131
199 189 198 196 201 200 199 164 213 190 203 199 206 215 214 216 206 200 211 196 209 181 185 184 177 180 182 176 197 254 257 137
199 202 196 202 211 203 221 169 205 212 205 204 216 200 198 208 216 218 210 187 201 166 186 180 179 173 185 168 184 223 235 135
192 198 202 209 207 220 202 210 177 202 205 220 211 214 208 212 210 209 214 214 189 194 188 190 176 171 183 173 203 218 185 147
189 205 183 218 209 209 219 214 214 185 197 215 211 211 214 212 210 219 220 206 206 200 199 187 177 172 179 182 217 227 160 175
214 196 200 205 219 207 204 219 209 211 206 181 211 210 221 225 213 219 224 216 211 202 179 189 177 174 175 191 196 200 167 130
221 205 202 205 212 217 204 217 210 213 197 196 204 197 204 220 232 203 204 209 196 184 160 177 170 179 185 188 199 174 177 185
234 218 208 203 215 216 216 208 211 213 194 196 199 203 206 215 228 204 192 160 154 161 165 188 172 182 177 172 200 190 180 188
252 240 227 202 211 215 203 201 207 214 214 196 192 202 199 209 218 210 162 175 174 168 170 179 187 176 160 165 184 191 180 171
256 241 235 218 214 216 192 190 204 212 217 196 207 184 192 203 208 169 162 164 166 173 170 143 153 178 167 133 141 191 175 173
265 255 244 223 223 180 188 190 203 205 203 206 202 195 202 202 199 175 168 168 173 174 167 166 165 179 183 126 143 162 149 185
291 276 251 229 215 190 203 204 201 208 208 205 200 198 202 202 192 178 175 171 173 177 178 176 171 180 178 272 342 132 165 162
302 288 263 241 215 221 194 212 213 205 202 200 204 198 196 194 191 176 176 175 181 177 176 176 194 185 184 171 156 184 183 154
307 280 264 243 219 217 189 204 224 209 201 194 195 189 192 195 192 181 185 184 180 185 187 181 180 191 184 181 176 184 190 155
307 295 265 243 220 229 196 204 226 222 194 190 191 187 186 185 179 182 187 189 183 181 183 187 183 178 170 165 142 199 170 169
315 304 288 244 222 219 218 208 230 224 187 191 193 198 195 173 174 176 181 183 184 181 183 179 182 174 165 169 160 211 185 210